| time (UTC) | temp F | wind direction | speed MPH | gust MPH | rain 1hr in | rain 24hr in | rain mn in | humidity % | barometer mb |
| 20260906114526 | 68 | 53 | 0.0 | 5.0 | 0.00 | 0.00 | 0.00 | 94 | 1015.7 |
| 20260906113022 | 68 | 42 | 0.0 | 5.0 | 0.00 | 0.00 | 0.00 | 94 | 1015.4 |
| 20260906111521 | 68 | 50 | 3.0 | 6.0 | 0.00 | 0.00 | 0.00 | 94 | 1015.3 |
| 20260906110020 | 68 | 43 | 2.0 | 5.0 | 0.00 | 0.00 | 0.00 | 94 | 1015.2 |
| 20260906104522 | 68 | 44 | 1.0 | 4.0 | 0.00 | 0.00 | 0.00 | 93 | 1014.9 |
| 20260906103015 | 68 | 72 | 0.0 | 5.0 | 0.00 | 0.00 | 0.00 | 93 | 1014.7 |
| 20260906101526 | 68 | 74 | 1.0 | 5.0 | 0.00 | 0.00 | 0.00 | 92 | 1014.8 |
| 20260906100012 | 69 | 75 | 1.0 | 6.0 | 0.00 | 0.00 | 0.00 | 92 | 1014.8 |
| 20260906094511 | 69 | 40 | 3.0 | 7.0 | 0.00 | 0.00 | 0.00 | 92 | 1014.5 |
| 20260906093011 | 69 | 26 | 2.0 | 5.0 | 0.00 | 0.00 | 0.00 | 92 | 1014.6 |
| 20260906091508 | 69 | 347 | 1.0 | 6.0 | 0.00 | 0.00 | 0.00 | 92 | 1014.5 |
| 20260906090008 | 69 | 60 | 1.0 | 7.0 | 0.00 | 0.00 | 0.00 | 91 | 1014.4 |
| 20260906084505 | 70 | 32 | 1.0 | 6.0 | 0.00 | 0.00 | 0.00 | 91 | 1014.4 |
| 20260906083004 | 70 | 64 | 2.0 | 7.0 | 0.00 | 0.00 | 0.00 | 90 | 1014.3 |
| 20260906081502 | 71 | 50 | 0.0 | 6.0 | 0.00 | 0.00 | 0.00 | 90 | 1014.4 |
| 20260906080001 | 71 | 103 | 1.0 | 5.0 | 0.00 | 0.00 | 0.00 | 89 | 1014.6 |
| 20260906074602 | 71 | 51 | 0.0 | 4.0 | 0.00 | 0.00 | 0.00 | 89 | 1014.6 |
| 20260906073059 | 71 | 61 | 2.0 | 5.0 | 0.00 | 0.00 | 0.00 | 88 | 1014.7 |
| 20260906071558 | 71 | 44 | 2.0 | 6.0 | 0.00 | 0.00 | 0.00 | 88 | 1014.6 |
| 20260906070057 | 72 | 56 | 1.0 | 5.0 | 0.00 | 0.00 | 0.00 | 87 | 1014.8 |
| 20260906064555 | 72 | 47 | 2.0 | 5.0 | 0.00 | 0.00 | 0.00 | 87 | 1014.7 |
| 20260906063054 | 72 | 58 | 0.0 | 5.0 | 0.00 | 0.00 | 0.00 | 87 | 1014.7 |
| 20260906061557 | 72 | 65 | 0.0 | 6.0 | 0.00 | 0.00 | 0.00 | 86 | 1014.7 |
| 20260906060051 | 72 | 11 | 2.0 | 8.0 | 0.00 | 0.00 | 0.00 | 86 | 1014.6 |
| 20260906054557 | 72 | 48 | 2.0 | 9.0 | 0.00 | 0.00 | 0.00 | 86 | 1014.5 |
| 20260906053053 | 72 | 51 | 3.0 | 7.0 | 0.00 | 0.00 | 0.00 | 86 | 1014.4 |
| 20260906051546 | 72 | 52 | 2.0 | 8.0 | 0.00 | 0.00 | 0.00 | 86 | 1014.4 |
| 20260906050105 | 72 | 47 | 2.0 | 7.0 | 0.00 | 0.00 | 0.00 | 85 | 1014.3 |
| 20260906044542 | 72 | 70 | 2.0 | 7.0 | 0.00 | 0.00 | 0.00 | 85 | 1014.1 |
| 20260906043040 | 72 | 59 | 2.0 | 9.0 | 0.00 | 0.00 | 0.00 | 84 | 1013.9 |
| 20260906041540 | 73 | 44 | 3.0 | 9.0 | 0.00 | 0.00 | 0.00 | 84 | 1013.7 |
| 20260906040042 | 73 | 59 | 4.0 | 10.0 | 0.00 | 0.00 | 0.00 | 83 | 1013.5 |
| 20260906034543 | 73 | 69 | 3.0 | 7.0 | 0.00 | 0.00 | 0.00 | 83 | 1013.5 |
| 20260906033039 | 73 | 92 | 3.0 | 12.0 | 0.00 | 0.00 | 0.00 | 83 | 1013.3 |
| 20260906031535 | 73 | 92 | 3.0 | 10.0 | 0.00 | 0.00 | 0.00 | 83 | 1013.4 |
| 20260906030038 | 73 | 146 | 6.0 | 12.0 | 0.00 | 0.00 | 0.00 | 83 | 1013.4 |
| 20260906024533 | 73 | 48 | 6.0 | 13.0 | 0.00 | 0.00 | 0.00 | 83 | 1013.3 |
| 20260906023031 | 73 | 77 | 5.0 | 11.0 | 0.00 | 0.00 | 0.00 | 83 | 1013.4 |
| 20260906021530 | 73 | 108 | 6.0 | 14.0 | 0.00 | 0.00 | 0.00 | 84 | 1013.4 |
| 20260906020032 | 73 | 75 | 6.0 | 13.0 | 0.00 | 0.00 | 0.00 | 83 | 1013.3 |
| 20260906014535 | 73 | 73 | 5.0 | 16.0 | 0.00 | 0.00 | 0.00 | 84 | 1013.3 |
| 20260906013029 | 73 | 53 | 8.0 | 16.0 | 0.00 | 0.00 | 0.00 | 83 | 1013.2 |
| 20260906011523 | 73 | 49 | 4.0 | 11.0 | 0.00 | 0.00 | 0.00 | 83 | 1013.2 |
| 20260906010020 | 73 | 53 | 5.0 | 14.0 | 0.00 | 0.00 | 0.00 | 82 | 1013.3 |
| 20260906004519 | 73 | 11 | 6.0 | 14.0 | 0.00 | 0.00 | 0.00 | 84 | 1013.2 |
| 20260906003016 | 73 | 37 | 5.0 | 11.0 | 0.00 | 0.00 | 0.00 | 83 | 1013.0 |
| 20260906001513 | 74 | 70 | 5.0 | 16.0 | 0.00 | 0.00 | 0.00 | 82 | 1012.8 |
| 20260906000009 | 75 | 78 | 8.0 | 18.0 | 0.00 | 0.00 | 0.00 | 79 | 1012.4 |
| 20260905234505 | 77 | 53 | 6.0 | 13.0 | 0.00 | 0.00 | 0.00 | 77 | 1012.3 |
| 20260905233012 | 79 | 360 | 7.0 | 14.0 | 0.00 | 0.00 | 0.00 | 75 | 1012.3 |
| 20260905231502 | 79 | 59 | 6.0 | 13.0 | 0.00 | 0.00 | 0.00 | 74 | 1012.1 |
| 20260905230002 | 81 | 41 | 7.0 | 15.0 | 0.00 | 0.00 | 0.00 | 71 | 1011.9 |
| 20260905224501 | 81 | 76 | 6.0 | 12.0 | 0.00 | 0.00 | 0.00 | 70 | 1011.7 |
| 20260905223100 | 83 | 72 | 4.0 | 12.0 | 0.00 | 0.00 | 0.00 | 66 | 1011.5 |
| 20260905221601 | 83 | 53 | 4.0 | 11.0 | 0.00 | 0.00 | 0.00 | 67 | 1011.4 |
| 20260905220059 | 84 | 103 | 4.0 | 14.0 | 0.00 | 0.00 | 0.00 | 67 | 1011.4 |
| 20260905214558 | 82 | 60 | 4.0 | 8.0 | 0.00 | 0.00 | 0.00 | 69 | 1011.7 |
| 20260905213057 | 82 | 94 | 6.0 | 10.0 | 0.00 | 0.00 | 0.00 | 71 | 1011.6 |
| 20260905211602 | 82 | 61 | 3.0 | 11.0 | 0.00 | 0.00 | 0.00 | 71 | 1011.6 |
| 20260905210058 | 81 | 39 | 5.0 | 11.0 | 0.00 | 0.00 | 0.00 | 74 | 1011.7 |
| 20260905204556 | 80 | 43 | 6.0 | 15.0 | 0.00 | 0.00 | 0.00 | 75 | 1011.9 |
| 20260905203100 | 80 | 37 | 6.0 | 14.0 | 0.00 | 0.00 | 0.00 | 74 | 1012.0 |
| 20260905201555 | 81 | 56 | 4.0 | 13.0 | 0.00 | 0.00 | 0.00 | 74 | 1011.9 |
| 20260905200104 | 82 | 63 | 3.0 | 13.0 | 0.00 | 0.00 | 0.00 | 73 | 1011.9 |
| 20260905194554 | 83 | 92 | 3.0 | 15.0 | 0.00 | 0.00 | 0.00 | 71 | 1011.8 |
| 20260905193108 | 83 | 47 | 6.0 | 18.0 | 0.00 | 0.00 | 0.00 | 70 | 1011.7 |
| 20260905191554 | 84 | 37 | 6.0 | 13.0 | 0.00 | 0.00 | 0.00 | 70 | 1011.8 |
| 20260905190052 | 84 | 44 | 5.0 | 13.0 | 0.00 | 0.00 | 0.00 | 70 | 1011.8 |
| 20260905184551 | 84 | 179 | 6.0 | 15.0 | 0.00 | 0.00 | 0.00 | 70 | 1011.8 |
| 20260905183055 | 84 | 89 | 4.0 | 12.0 | 0.00 | 0.00 | 0.00 | 70 | 1011.9 |
| 20260905181550 | 84 | 37 | 3.0 | 11.0 | 0.00 | 0.00 | 0.00 | 70 | 1011.9 |
| 20260905180050 | 84 | 111 | 5.0 | 10.0 | 0.00 | 0.00 | 0.00 | 70 | 1011.8 |
| 20260905174550 | 85 | 95 | 5.0 | 12.0 | 0.00 | 0.00 | 0.00 | 69 | 1011.8 |
| 20260905173048 | 85 | 50 | 5.0 | 10.0 | 0.00 | 0.00 | 0.00 | 70 | 1011.8 |
| 20260905171551 | 86 | 38 | 3.0 | 10.0 | 0.00 | 0.00 | 0.00 | 68 | 1011.8 |
| 20260905170045 | 85 | 66 | 3.0 | 10.0 | 0.00 | 0.00 | 0.00 | 70 | 1011.9 |
| 20260905164544 | 85 | 34 | 5.0 | 10.0 | 0.00 | 0.00 | 0.00 | 70 | 1012.0 |
| 20260905163041 | 84 | 23 | 2.0 | 9.0 | 0.00 | 0.00 | 0.00 | 72 | 1012.1 |
| 20260905161540 | 83 | 72 | 3.0 | 11.0 | 0.00 | 0.00 | 0.00 | 75 | 1012.1 |
| 20260905160039 | 83 | 33 | 3.0 | 7.0 | 0.00 | 0.00 | 0.00 | 73 | 1012.0 |
| 20260905154546 | 82 | 119 | 4.0 | 12.0 | 0.00 | 0.00 | 0.00 | 75 | 1012.0 |
| 20260905153036 | 82 | 63 | 2.0 | 8.0 | 0.00 | 0.00 | 0.00 | 76 | 1011.9 |
| 20260905151534 | 82 | 88 | 2.0 | 10.0 | 0.00 | 0.00 | 0.00 | 78 | 1011.8 |
| 20260905150036 | 80 | 37 | 5.0 | 15.0 | 0.00 | 0.00 | 0.00 | 80 | 1011.6 |
| 20260905144531 | 79 | 34 | 5.0 | 13.0 | 0.00 | 0.00 | 0.00 | 82 | 1011.4 |
| 20260905143030 | 78 | 65 | 5.0 | 9.0 | 0.00 | 0.00 | 0.00 | 84 | 1011.5 |
| 20260905141528 | 77 | 45 | 4.0 | 10.0 | 0.00 | 0.00 | 0.00 | 85 | 1011.5 |
| 20260905140027 | 79 | 61 | 4.0 | 10.0 | 0.00 | 0.00 | 0.00 | 83 | 1011.2 |
| 20260905134540 | 78 | 25 | 5.0 | 10.0 | 0.00 | 0.00 | 0.00 | 85 | 1011.2 |
| 20260905133026 | 78 | 17 | 5.0 | 10.0 | 0.00 | 0.00 | 0.00 | 85 | 1011.3 |
| 20260905131526 | 79 | 60 | 3.0 | 7.0 | 0.00 | 0.00 | 0.00 | 85 | 1011.5 |
| 20260905130022 | 78 | 56 | 1.0 | 8.0 | 0.00 | 0.00 | 0.00 | 86 | 1010.9 |
| 20260905124521 | 78 | 58 | 3.0 | 7.0 | 0.00 | 0.00 | 0.00 | 87 | 1010.6 |
| 20260905123016 | 78 | 44 | 0.0 | 8.0 | 0.00 | 0.00 | 0.00 | 89 | 1010.4 |
| 20260905121517 | 77 | 75 | 3.0 | 8.0 | 0.00 | 0.00 | 0.00 | 90 | 1010.5 |
| 20260905120023 | 77 | 44 | 0.0 | 2.0 | 0.00 | 0.00 | 0.00 | 92 | 1010.3 |